Location: ??????
(38.3184°N, 23.6932°E)
Time: 01:58:47
(UTC+00:00)

Cosmos 1535 Rocket - Pass Details

Date: 16 October 2021
Orbit: 948 x 1004 km, 83.0° (Epoch: 04 December)

Event Time Altitude Azimuth Distance (km) Brightness Sun altitude
Rises 17:06:26 0° 173° (S) 3,633 7.4 -16.6°
Reaches altitude 10° 17:08:56 10° 170° (S) 2,698 6.7 -17.1°
Maximum altitude 17:14:59 59° 92° (E) 1,122 4.5 -18.2°
Drops below altitude 10° 17:21:09 10° 15° (NNE) 2,753 6.7 -19.5°
Sets 17:23:43 0° 12° (NNE) 3,713 7.5 -20.0°
